Location: Borderline Observatory
(42.7345°N, 72.8696°W)
Time: 10:47:41
(UTC-04:00)

Daily predictions for brighter satellites

Satellite Brightness Start Highest point End
(mag) Time Altitude Azimuth Time Altitude Azimuth Time Altitude Azimuth
CENTAUR R/B 3.2 20:39:43 10° NW 20:47:35 82° NE 20:55:56 10° SE
Cosmos 2278 Rocket 3.8 20:48:16 10° SE 20:51:16 15° E 20:54:17 10° ENE
USA 186 3.2 20:53:36 10° SSW 20:56:26 37° W 20:59:28 10° NNW
Cosmos 1356 Rocket 3.5 20:52:32 10° S 20:56:41 63° E 21:00:56 10° NNE
NOSS 2-2 (D) 3.7 20:55:55 10° SSW 20:59:52 50° ESE 21:04:26 10° NE
Cosmos 1844 Rocket 3.2 20:56:49 10° S 21:01:58 38° ESE 21:07:08 10° NE
Cosmos 2074 Rocket 4.0 20:57:27 10° S 21:03:41 74° E 21:09:58 10° NNE
Meteor 2-3 Rocket 4.0 20:59:42 10° SSW 21:05:19 73° W 21:10:56 10° N
SL-27 R/B 3.0 21:02:02 10° N 21:05:35 45° ENE 21:08:58 11° SE
Cosmos 1825 3.8 21:03:09 10° SE 21:05:43 18° E 21:08:18 10° NE
Cosmos 2082 Rocket 4.3 21:05:40 10° NNE 21:08:29 14° NE 21:11:19 10° ENE
H-2A R/B 2.1 21:04:52 10° SSE 21:09:10 63° ENE 21:13:22 10° N
COS B Rocket 4.2 21:06:34 10° NNE 21:10:23 32° E 21:13:47 11° SSE
Meteor 1-27 Rocket 4.2 21:08:02 10° N 21:13:23 44° ENE 21:18:25 11° SE
NOSS 2-2 (C) 3.5 21:10:27 10° SSW 21:14:31 71° ESE 21:19:15 10° NE
Cosmos 2263 Rocket 3.9 21:12:00 10° SW 21:17:16 38° WNW 21:22:32 10° N
Nadezhda 3 Rocket 4.4 21:11:29 10° N 21:17:36 48° ENE 21:23:31 11° SSE
Cosmos 1340 Rocket 4.0 21:14:13 10° SSW 21:18:03 47° WNW 21:21:58 10° N
MetOp-A 4.5 21:14:05 10° SE 21:19:12 51° ENE 21:24:23 10° N
CZ-4 SHROUD 4.1 21:17:38 14° SE 21:19:49 33° ENE 21:22:40 10° N
YAOGAN 6 3.5 21:17:30 14° SE 21:20:03 32° ENE 21:23:12 10° N
Cosmos 1408 3.8 21:18:10 13° SE 21:20:33 24° E 21:23:34 10° NE
Cosmos 1624 Rocket 4.1 21:17:30 10° SSW 21:22:47 89° WNW 21:28:07 10° NNE
Envisat 3.0 21:17:43 10° SSE 21:22:48 87° ENE 21:27:54 10° NNW
Cosmos 1782 2.8 21:20:10 10° N 21:24:12 81° E 21:28:14 10° S
BREEZE-M DEB (TANK) 3.4 21:22:56 10° W 21:24:46 26° SSW 21:26:55 14° SSE
Cosmos 1939 Rocket 3.0 21:21:24 10° S 21:25:15 71° W 21:29:10 10° NNW
Atlas Centaur 2 3.1 21:24:21 10° SSW 21:25:53 12° S 21:26:36 12° SSE
Okean 2 Rocket 4.3 21:25:30 15° SE 21:28:00 24° E 21:31:33 10° NE
H-2A R/B 3.7 21:25:02 11° ESE 21:28:35 21° ENE 21:32:28 10° NNE
Cosmos 1238 Rocket 3.3 21:26:50 10° NNE 21:29:39 31° E 21:31:27 19° SE
Sich 1 Rocket 3.6 21:28:18 10° S 21:32:52 72° E 21:37:27 10° NNE
Meteor 2-10 Rocket 4.5 21:27:49 10° NNW 21:33:31 55° W 21:39:03 10° S
NOSS 2-2 (E) 3.9 21:29:21 10° SW 21:33:31 71° NW 21:38:30 10° NNE
SPOT 5 3.1 21:28:50 11° SSE 21:33:57 81° ENE 21:39:20 10° NNW
Cosmos 1242 Rocket 4.2 21:32:11 10° NNE 21:35:01 21° ENE 21:36:29 17° ESE
ERBS 3.0 21:32:48 10° WNW 21:36:10 46° SW 21:38:24 18° SSE
Cosmos 2341 Rocket 4.3 21:30:07 10° SSE 21:36:10 51° E 21:42:12 10° NNE
PSLV R/B 3.0 21:34:51 20° SSE 21:36:41 64° ENE 21:39:38 10° N
Cosmos 1674 Rocket 3.8 21:32:46 10° NNW 21:37:14 73° W 21:41:39 10° S
Cosmos 1606 2.7 21:34:31 10° N 21:38:27 69° E 21:41:21 17° SSE
Cosmos 407 Rocket 3.5 21:35:27 10° NNW 21:40:45 88° ENE 21:45:02 16° SSE
SPOT 1/Viking Rocket 3.8 21:39:31 17° SE 21:43:21 56° ENE 21:48:28 10° N
Terra 3.4 21:42:24 15° ESE 21:44:49 21° ENE 21:48:23 10° NNE
Cosmos 1452 Rocket 3.5 21:41:30 10° S 21:46:39 59° ESE 21:51:51 10° NNE
ERS-1 Rocket 4.4 21:44:27 10° SSW 21:49:02 35° W 21:53:40 10° NNW
Cosmos 1782 Rocket 3.8 21:47:18 18° SSE 21:50:23 50° E 21:54:44 10° NNE
Cosmos 1190 Rocket 4.4 21:47:12 10° NNW 21:52:18 59° WSW 21:56:41 14° S
Cosmos 1140 Rocket 4.0 21:50:09 10° N 21:55:06 46° ENE 21:57:55 24° SE
PSLV R/B 4.4 21:54:53 10° W 21:57:58 30° SSW 21:58:46 27° S
Cosmos 962 Rocket 4.4 21:54:46 10° S 22:00:53 78° E 22:07:07 10° N
SL-8 Rocket 4.3 21:57:01 20° SSE 22:01:08 47° E 22:07:05 10° NNE
Okean 3 3.4 21:59:38 10° N 22:03:57 83° E 22:06:18 26° SSE
USA 234 3.5 21:58:53 10° ENE 22:05:04 44° SE 22:11:13 10° SSW
Cosmos 1975 Rocket 3.0 22:01:16 10° N 22:05:35 72° E 22:07:44 29° SSE
Cosmos 2154 Rocket 4.2 22:01:13 10° SSW 22:07:26 74° W 22:13:39 10° N
Intercosmos 25 3.2 22:07:21 33° SSE 22:08:43 54° E 22:11:52 10° NNE
CZ-4B R/B 3.3 22:05:04 10° NNE 22:10:05 79° ESE 22:13:59 16° S
BREEZE-M DEB (TANK) 4.2 22:08:42 10° W 22:11:37 47° N 22:19:22 10° ENE
SL-8 R/B 4.1 22:09:19 10° WSW 22:14:07 65° NNW 22:18:54 10° ENE
Cosmos 1908 Rocket 4.4 22:11:25 10° SSW 22:15:41 49° WNW 22:20:01 10° N
Meteor 1-14 Rocket 4.5 22:12:56 26° SSE 22:15:50 50° E 22:21:15 10° NNE
Cosmos 1850 Rocket 4.3 22:14:13 10° NNW 22:19:28 57° ENE 22:21:46 32° SE
USA 245 3.4 22:19:18 34° SSW 22:20:19 51° W 22:23:55 10° NNW
SL-08 RB Rocket 3.7 22:18:58 31° SSE 22:21:10 89° W 22:25:49 10° NNW
Cosmos 1378 Rocket 4.3 22:17:24 10° NNW 22:21:33 47° W 22:24:19 19° SSW
ARGOS 3.2 22:19:51 25° S 22:23:05 76° WSW 22:28:28 10° NNW
ATLAS 5 CENTAUR R/B 3.8 22:19:16 10° WNW 22:24:27 29° WSW 22:28:52 14° SSW
Cosmos 1295 Rocket 4.5 22:21:05 17° S 22:26:07 88° E 22:32:27 10° N
Cosmos 1184 Rocket 3.4 22:24:38 27° SW 22:26:10 56° WNW 22:29:28 10° N
CZ-4 R/B 3.7 22:22:51 10° NNE 22:27:35 87° ESE 22:30:17 25° SSW
CZ-3C R/B 4.3 22:22:48 10° SW 22:28:42 13° SSW 22:30:50 12° S
Cosmos 1954 Rocket 4.3 22:24:07 10° NNW 22:29:14 60° WSW 22:31:54 28° S
Cosmos 1174 4.1 22:26:16 10° NW 22:29:17 36° WSW 22:29:36 34° SW
Cosmos 2151 Rocket 3.8 22:32:07 43° SE 22:33:06 53° E 22:37:31 10° NNE
Cosmos 2278 Rocket 2.3 22:28:55 10° SSW 22:34:35 79° WNW 22:40:18 10° NNE
Cosmos 1741 Rocket 3.9 22:32:44 10° NNW 22:38:00 79° ENE 22:39:49 42° SSE
Cosmos 1833 Rocket 3.3 22:33:28 10° NNW 22:38:51 44° ENE 22:40:56 31° ESE
Cosmos 2366 rocket 4.0 22:36:39 31° SSE 22:39:45 68° E 22:46:02 10° NNE
Cosmos 1825 3.9 22:37:57 11° SW 22:41:06 30° WNW 22:44:31 10° NNW
Cosmos 2084 3.4 22:38:23 10° SW 22:42:13 67° NW 22:46:03 10° NNE
COSMOS 2487 3.5 22:40:44 10° NW 22:44:07 38° WSW 22:44:48 34° SW
Cosmos 1844 Rocket 4.4 22:40:48 10° WSW 22:45:53 34° NW 22:50:59 10° N
USA 229 DEB 4.0 22:41:45 10° NNW 22:48:47 61° NE 22:52:17 31° ESE
USA 229 4.1 22:41:51 10° NNW 22:48:53 60° NE 22:52:24 31° ESE
APEX 3.3 22:50:10 56° SSW 22:51:00 85° ESE 22:55:56 10° NNE
CZ-4C R/B 3.6 22:51:49 50° SW 22:52:28 58° W 22:56:26 10° NNW
Cosmos 1812 3.3 22:49:07 10° N 22:52:41 44° ENE 22:52:41 44° ENE
Cosmos 2082 Rocket 2.2 22:47:56 10° NNW 22:53:40 72° ENE 22:55:25 45° SE
Cosmos 1110 Rocket 4.4 22:59:10 42° ESE 22:59:17 42° ESE 23:04:11 10° NNE
Okean 1-7 Rocket 4.4 22:57:38 10° N 23:01:51 37° ENE 23:02:00 37° E
Cosmos 2218 Rocket 4.2 22:59:14 26° SSW 23:03:05 71° W 23:09:30 10° N
Okean 1 Rocket 3.7 23:05:04 40° E 23:05:04 40° E 23:08:59 10° NNE
Cosmos 2297 3.7 23:02:58 29° SSW 23:06:02 85° WNW 23:11:49 10° NNE
H-2A R/B 2.5 23:05:40 38° SSW 23:07:34 58° W 23:12:51 10° NNW
Cosmos 1300 Rocket 3.9 23:08:01 51° E 23:08:01 51° E 23:12:08 10° NNE
Cosmos 1242 Rocket 4.4 23:07:04 10° NW 23:10:01 23° W 23:10:42 22° WSW
Cosmos 1727 Rocket 4.1 23:13:28 10° NNW 23:19:35 67° W 23:21:45 41° SSW
Spot 4 4.1 23:21:25 52° SW 23:22:14 60° W 23:27:03 10° NNW
Terra 2.5 23:21:17 39° SW 23:22:15 44° W 23:26:50 10° NNW
AVUM R/B 4.5 23:18:49 10° NNW 23:21:31 43° NNE 23:21:31 43° NNE
ASTEX 1 3.3 23:20:06 10° N 23:25:04 85° W 23:25:46 66° SSW
IGS 5A 4.3 23:25:17 39° WSW 23:25:34 39° W 23:29:30 10° NNW
Lacrosse 5 4.1 23:35:24 13° ENE 23:35:24 13° ENE 23:36:10 10° ENE
Okean 1 3.7 23:31:00 10° NNW 23:34:40 62° WNW 23:34:40 62° WNW
NOSS 3-1 (C) 4.5 23:31:49 10° NNW 23:39:08 55° NE 23:43:05 30° ESE
Cosmos 2369 Rocket 3.5 23:46:17 26° E 23:46:17 26° E 23:50:00 10° NE
BREEZE-M DEB (TANK) 3.9 23:43:15 10° NW 23:45:48 34° NNE 23:51:52 10° E
USA 234 3.7 23:41:47 10° NE 23:48:11 60° NNW 23:54:35 10° WSW
CZ-4C R/B 4.5 23:55:12 36° NNE 23:55:12 36° NNE 23:57:48 10° N
